DW9005 Weather Reports


time (UTC)temp
F
wind
direction
speed
knots
gust
knots
rain 1hr
in
rain 24hr
in
rain mn
in
humidity
%
barometer
mb
20260508041603 56 33 0.0 0.0 0.00 0.00 0.00 91 1016.0
20260508040106 56 33 0.0 0.0 0.00 0.00 0.00 91 1016.1
20260508034556 57 33 0.0 0.0 0.00 0.00 0.00 91 1016.1
20260508033055 57 33 0.0 0.0 0.00 0.00 0.00 91 1016.0
20260508031550 58 33 0.0 0.0 0.00 0.00 0.00 91 1015.9
20260508030105 58 33 0.0 0.0 0.00 0.00 0.00 90 1015.8
20260508024555 58 33 0.0 0.0 0.00 0.00 0.00 90 1015.6
20260508023044 59 33 0.0 0.0 0.00 0.00 0.00 89 1015.8
20260508021524 59 33 0.0 0.0 0.00 0.00 0.00 88 1015.5
20260508020022 60 33 0.0 0.0 0.00 0.00 0.00 87 1015.4
20260508014504 61 33 0.0 0.0 0.00 0.00 0.00 85 1015.2
20260508013004 62 33 0.0 0.0 0.00 0.00 0.00 84 1015.2
20260508011603 63 355 0.0 0.0 0.00 0.00 0.00 80 1015.3
20260508010104 63 355 0.0 0.0 0.00 0.00 0.00 79 1015.0
20260508004558 64 317 0.0 0.0 0.00 0.00 0.00 80 1014.8
20260508003103 65 317 0.0 0.0 0.00 0.00 0.00 77 1014.7
20260508001549 66 309 0.0 0.0 0.00 0.00 0.00 74 1014.7
20260508000048 67 338 0.0 0.0 0.00 0.00 0.00 72 1014.4
20260507234548 67 287 0.0 0.0 0.00 0.00 0.00 71 1014.3
20260507233048 68 355 0.0 0.0 0.00 0.00 0.00 71 1014.1
20260507231529 69 321 0.0 0.0 0.00 0.00 0.00 66 1014.1
20260507230029 69 348 0.0 0.0 0.00 0.00 0.00 68 1013.9
20260507224515 70 290 0.0 0.0 0.00 0.00 0.00 68 1014.0
20260507223011 70 294 0.0 0.0 0.00 0.00 0.00 67 1013.9
20260507221552 71 344 0.0 0.0 0.00 0.00 0.00 67 1013.7
20260507220054 71 344 0.0 0.0 0.00 0.00 0.00 69 1013.5
20260507214535 70 339 0.0 0.0 0.00 0.00 0.00 71 1013.5
20260507213035 70 5 0.0 0.0 0.00 0.00 0.00 73 1013.5
20260507211516 70 88 0.0 0.0 0.00 0.00 0.00 71 1013.3
20260507210016 71 40 0.0 0.0 0.00 0.00 0.00 71 1013.3
20260507204611 71 316 0.0 0.0 0.00 0.00 0.00 70 1013.3
20260507203055 71 296 0.0 0.0 0.00 0.00 0.00 72 1013.5
20260507201540 71 313 0.0 0.0 0.00 0.00 0.00 71 1013.5
20260507200037 69 316 0.0 0.0 0.00 0.00 0.00 77 1013.5
20260507194515 69 5 0.0 0.0 0.00 0.00 0.00 75 1013.6
20260507193013 69 254 0.0 0.0 0.00 0.00 0.00 76 1013.7
20260507191552 67 262 0.0 0.0 0.00 0.00 0.00 79 1013.6
20260507190101 66 298 0.0 0.0 0.00 0.00 0.00 80 1013.6
20260507184538 66 301 0.0 0.0 0.00 0.00 0.00 81 1014.1
20260507183037 66 327 0.0 0.0 0.00 0.00 0.00 82 1014.2
20260507181513 64 259 0.0 0.0 0.00 0.00 0.00 84 1014.5
20260507180013 64 318 0.0 0.0 0.00 0.00 0.00 85 1014.5
20260507174554 64 257 0.0 0.0 0.00 0.00 0.00 87 1014.7
20260507173056 63 296 0.0 0.0 0.00 0.00 0.00 89 1014.7
20260507171542 62 259 0.0 0.0 0.00 0.00 0.00 90 1014.9
20260507170040 61 273 0.0 0.0 0.00 0.00 0.00 91 1015.0
20260507164539 60 330 0.0 0.0 0.00 0.00 0.00 91 1014.9
20260507163038 61 325 0.0 0.0 0.00 0.00 0.00 91 1014.7
20260507161539 60 327 0.0 0.0 0.00 0.00 0.00 91 1014.5
20260507160038 60 315 0.0 0.0 0.00 0.00 0.00 91 1014.2
20260507154538 60 308 0.0 0.0 0.00 0.00 0.00 91 1014.4
20260507153035 61 274 0.0 0.0 0.00 0.00 0.00 91 1014.1
20260507151516 61 213 0.0 0.0 0.00 0.00 0.00 90 1014.0
20260507150013 63 297 0.0 0.0 0.00 0.00 0.00 90 1013.7
20260507144557 63 302 0.0 0.0 0.00 0.00 0.00 91 1013.5
20260507143052 63 327 0.0 0.0 0.00 0.00 0.00 91 1013.4
20260507141534 63 257 0.0 0.0 0.00 0.00 0.00 92 1013.6
20260507140041 62 325 0.0 0.0 0.00 0.00 0.00 92 1013.1
20260507134519 62 16 0.0 0.0 0.00 0.00 0.00 92 1013.3
20260507133014 61 350 0.0 0.0 0.00 0.00 0.00 92 1013.0
20260507131609 61 332 0.0 0.0 0.00 0.00 0.00 92 1012.9
20260507130109 61 10 0.0 0.0 0.00 0.00 0.00 93 1012.5
20260507124543 0 0.0 0.0 0.00 0.00 0.00 1012.9
20260507123038 0 0.0 0.0 0.00 0.00 0.00 1012.5
20260507121511 0 0.0 0.0 0.00 0.00 0.00 1012.0
20260507120007 0 0.0 0.0 0.00 0.00 0.00 1012.0
20260507114548 0 0.0 0.0 0.00 0.00 0.00 1011.6
20260507113043 0 0.0 0.0 0.00 0.00 0.00 1011.3
20260507111523 0 0.0 0.0 0.00 0.00 0.00 1011.7
20260507110017 0 0.0 0.0 0.00 0.00 0.00 1011.5
20260507104555 0 0.0 0.0 0.00 0.00 0.00 1010.9
20260507103054 0 0.0 0.0 0.00 0.00 0.00 1011.0
20260507101535 0 0.0 0.0 0.00 0.00 0.00 1010.3
20260507100032 0 0.0 0.0 0.00 0.00 0.00 1010.0
20260507094503 0 0.0 0.0 0.00 0.00 0.00 1010.4
20260507093101 0 0.0 0.0 0.00 0.00 0.00 1010.3
20260507091539 64 292 0.0 0.0 0.00 0.00 0.00 92 1010.4
20260507090041 64 230 0.0 0.0 0.00 0.00 0.00 93 1010.1
20260507084519 64 311 0.0 0.0 0.00 0.00 0.00 93 1009.8
20260507083033 64 313 0.0 0.0 0.00 0.00 0.00 93 1009.8
20260507081501 64 313 0.0 0.0 0.00 0.00 0.00 92 1009.7
20260507080001 64 313 0.0 0.0 0.00 0.00 0.00 93 1009.9
20260507074605 64 313 0.0 0.0 0.00 0.00 0.00 93 1010.1
20260507073049 64 319 0.0 0.0 0.00 0.00 0.00 93 1010.4
20260507071557 64 350 0.0 0.0 0.00 0.00 0.00 93 1009.7
20260507070021 65 355 0.0 0.0 0.00 0.00 0.00 93 1010.3
20260507064520 65 321 0.0 0.0 0.00 0.00 0.00 93 1010.6
20260507063104 65 327 0.0 0.0 0.00 0.00 0.00 93 1010.7
20260507061600 65 335 0.0 0.0 0.00 0.00 0.00 93 1011.2
20260507060041 65 200 0.0 0.0 0.00 0.00 0.00 93 1011.1
20260507054549 65 306 0.0 0.0 0.00 0.00 0.00 93 1011.8
20260507053023 66 281 0.0 0.0 0.00 0.00 0.00 93 1011.9
20260507051522 66 275 0.0 0.0 0.00 0.00 0.00 93 1011.6
20260507050004 66 347 0.0 0.0 0.00 0.00 0.00 93 1011.2
20260507044501 66 9 0.0 0.0 0.00 0.00 0.00 93 1011.8
20260507043043 66 303 0.0 0.0 0.00 0.00 0.00 93 1012.3